User: anonymous   Login
Location: Unspecified
(0.0000°N, 0.0000°E)
Time: 18:05:09
(UTC+00:00)
Language:

METEOR-M - Orbit

View from above orbital plane
View from above orbital plane
View from above satellite
View from above satellite

Ground track
Ground track

The orbit data is extracted from the following two-line orbital elements,

1 35865U 09049A   14355.18929560  .00000209  00000-0  11365-3 0  1821
2 35865 098.5254 036.6925 0001845 278.6785 081.4185 14.21969037272914
Epoch (UTC): 21 December 2014 04:32:35
Eccentricity: 0.0001845
inclination: 98.5254°
perigee height: 817 km
apogee height: 820 km
right ascension of ascending node: 36.6925°
argument of perigee: 278.6785°
revolutions per day: 14.21969037
mean anomaly at epoch: 81.4185°
orbit number at epoch: 27291

The dashed part of the orbit path shows where the satellite is in the earth's shadow,  

DLR